Address 0xaff68138f72da16da9c154654d75c7448da12384

Overview

Balance:
4.457458124989596033 AVAX

AVAX Value:
$90.89 (@ $20.39/AVAX)
Txn Hash Method
Block
From
To
Value [Txn Fee]
0xb2ec4613944341f60ff9acf8bed9005739c7a3e53570763af5c15900da48476f0xa240cb89258670482023-02-05 13:34:331 hr 20 mins ago0xaff68138f72da16da9c154654d75c7448da12384OUT 0xe35f24470730f5a488da9721548c1ab0b65b53d50 AVAX0.00856965375 26.250000001
0x5d20893e52d95354d37c6e4645829a00dfd9b84083f58fbd3d3dc577cdd6a1700x92a1213b258665362023-02-05 13:17:301 hr 37 mins ago0xaff68138f72da16da9c154654d75c7448da12384OUT 0xe35f24470730f5a488da9721548c1ab0b65b53d50 AVAX0.00856965375 26.250000001
0x749842de85c70584250532bf5024679d26dee21ececa93692e37485a7a136e420x30d2ea52258660652023-02-05 13:01:431 hr 53 mins ago0xaff68138f72da16da9c154654d75c7448da12384OUT 0xe35f24470730f5a488da9721548c1ab0b65b53d50 AVAX0.01753419559 46.220343132
0xcfeac0bf93bc6fe0d4c8c79b3456d3ebc993478c9ff4d88e1de4b4ea0ba94ee30xc7095d55258660072023-02-05 12:59:501 hr 55 mins ago0xaff68138f72da16da9c154654d75c7448da12384OUT 0xe35f24470730f5a488da9721548c1ab0b65b53d50 AVAX0.002124145764 78.047683883
0x1f88f603353c43d3176cef1504ce789b930892eca5ecf13818dacef870c347500x0261a18d258658782023-02-05 12:56:001 hr 59 mins ago0xaff68138f72da16da9c154654d75c7448da12384OUT 0xe35f24470730f5a488da9721548c1ab0b65b53d50 AVAX0.005523577295 45.687535009
0xc83f8361b1803371cd13e492fda7c08ea6d8f92afc0dc16d085874f99bf6de830xff0315ac258658132023-02-05 12:54:132 hrs 1 min ago0xaff68138f72da16da9c154654d75c7448da12384OUT 0xe35f24470730f5a488da9721548c1ab0b65b53d50 AVAX0.00280468125 26.250000001
0xb84972654473a4da3d7549d2481f18c77d63a9b075b2238ba5e630ddaeee79e90xe0e434df258658092023-02-05 12:54:092 hrs 1 min ago0xaff68138f72da16da9c154654d75c7448da12384OUT 0xe35f24470730f5a488da9721548c1ab0b65b53d50 AVAX0.0017258325 26.250000001
0x86580a6462ef9be3aed2252d15bdbc25ea55ec13a4d8e4897d68eededb3230490xc4fa79ba258657602023-02-05 12:52:332 hrs 2 mins ago0xaff68138f72da16da9c154654d75c7448da12384OUT 0xe35f24470730f5a488da9721548c1ab0b65b53d50 AVAX0.010257485846 26.920980538
0x49012384065aa3be87248b0b57e9d69e0c6f8f88b107ebe3af7eb7bde0d44d220x27dc74cc258657582023-02-05 12:52:272 hrs 2 mins ago0xaff68138f72da16da9c154654d75c7448da12384OUT 0xe35f24470730f5a488da9721548c1ab0b65b53d50 AVAX0.000704488326 26.263358433
0x60ea7375d042490e104f8728072f7a9ba894e128a01e7070cfa561d1a910b6770xd6596a9b258657142023-02-05 12:51:092 hrs 4 mins ago0xaff68138f72da16da9c154654d75c7448da12384OUT 0xe35f24470730f5a488da9721548c1ab0b65b53d50 AVAX0.0017159625 26.250000001
0xc345c3da5515c7efb6c834d39951747d259a11d093a4c007fce09c7483b0dcd30xd970c780258657102023-02-05 12:51:052 hrs 4 mins ago0xaff68138f72da16da9c154654d75c7448da12384OUT 0xe35f24470730f5a488da9721548c1ab0b65b53d50 AVAX0.00901968375 26.250000001
0x67a04d92110d1970766bb448c1b59a744236690e87268892e9bdf442da16dddb0xaf9b0e2c258656892023-02-05 12:50:212 hrs 5 mins ago0xaff68138f72da16da9c154654d75c7448da12384OUT 0xe35f24470730f5a488da9721548c1ab0b65b53d50 AVAX0.010039213019 26.275916182
0x82c666fabb4057713b82100ccfdb9f6c0b79dd4062097104de83a0e20e4f3d5e0x7df94f80258656732023-02-05 12:49:562 hrs 5 mins ago0xaff68138f72da16da9c154654d75c7448da12384OUT 0xe35f24470730f5a488da9721548c1ab0b65b53d50 AVAX0.00307419 26.250000001
0xae2951e9ba82c1bf44c9ad97879a7e57521715eae061f13131cfdbea335861400x72c84eca258656702023-02-05 12:49:532 hrs 5 mins ago0xaff68138f72da16da9c154654d75c7448da12384OUT 0xe35f24470730f5a488da9721548c1ab0b65b53d50 AVAX0.00727636875 26.250000001
0xe2df6ed2a71e747dc2bb8dcfd6dd46da95b3fc9496c5dae4b3ebe23d595b3f890x0ee68bb1258656632023-02-05 12:49:442 hrs 5 mins ago0xaff68138f72da16da9c154654d75c7448da12384OUT 0xe35f24470730f5a488da9721548c1ab0b65b53d50 AVAX0.00280468125 26.250000001
0xbbf7493169a69a730daeb19ad37768f8d1808323e0b271fe179b5dadfb1dc9210xccbee23c258654772023-02-05 12:43:252 hrs 11 mins ago0xaff68138f72da16da9c154654d75c7448da12384OUT 0xe35f24470730f5a488da9721548c1ab0b65b53d50 AVAX0.0017159625 26.250000001
0xc64771873e0009138d9baf0e9394a4ecc7d35ca037e4d3845b00798595f76eff0x70850563258654732023-02-05 12:43:212 hrs 12 mins ago0xaff68138f72da16da9c154654d75c7448da12384OUT 0xe35f24470730f5a488da9721548c1ab0b65b53d50 AVAX0.0017159625 26.250000001
0x47f8b0c2166b13147125eb8137994b730178dd771142511564319207ae862a150xc5c85534258548022023-02-05 6:43:488 hrs 11 mins ago0xaff68138f72da16da9c154654d75c7448da12384OUT 0xe35f24470730f5a488da9721548c1ab0b65b53d50 AVAX0.00153701625 26.250000001
0xdd066998c54048a6a6024c5b6a72b2a1af617269a69465ca50ae2f5b7b190ef00xda5b8a5d258500522023-02-05 4:01:4910 hrs 53 mins ago0xaff68138f72da16da9c154654d75c7448da12384OUT 0xe35f24470730f5a488da9721548c1ab0b65b53d50 AVAX0.001531215 26.250000001
0x592e061ac9dd15db1cd95b64c3f016c7bad6d8508f63c2ee4e35e1cc9bae1a8c0x3bd724bc258474942023-02-05 2:34:3012 hrs 20 mins ago0xaff68138f72da16da9c154654d75c7448da12384OUT 0xe35f24470730f5a488da9721548c1ab0b65b53d50 AVAX0.0031418625 26.250000001
0x5727cc43642ba88e02c838a6362c574821f4f1dcb522d6521a336036250dea690x48b66388258468652023-02-05 2:13:0212 hrs 42 mins ago0xaff68138f72da16da9c154654d75c7448da12384OUT 0xe35f24470730f5a488da9721548c1ab0b65b53d50 AVAX0.0097535025 26.250000001
0xa9bb8b982f03fe97d79cd060d5d5551e333a023f98cb2626535e4d4ff1a67ed50x9406d85b258452422023-02-05 1:17:5813 hrs 37 mins ago0xaff68138f72da16da9c154654d75c7448da12384OUT 0xe35f24470730f5a488da9721548c1ab0b65b53d50 AVAX0.0079293375 26.250000001
0xd51af5b4e97eafa85750c729f9776fcaabec1148a18aa832ae9ffa55b95a45b50x9b3f5ffb258445962023-02-05 0:56:2013 hrs 59 mins ago0xaff68138f72da16da9c154654d75c7448da12384OUT 0xe35f24470730f5a488da9721548c1ab0b65b53d50 AVAX0.00173200125 26.250000001
0x6a3f2a41736332ee46c320f057dd6d6b2e7ef67912a1511b439aca6ca1dd19af0x1665426b258445922023-02-05 0:56:1613 hrs 59 mins ago0xaff68138f72da16da9c154654d75c7448da12384OUT 0xe35f24470730f5a488da9721548c1ab0b65b53d50 AVAX0.007339395 26.250000001
0x476a5d4e4e80a8f28813e9964e729489eee7785e1db9e06e51bacdaca087ddd80x73a46b95258445022023-02-05 0:53:1514 hrs 2 mins ago0xaff68138f72da16da9c154654d75c7448da12384OUT 0xe35f24470730f5a488da9721548c1ab0b65b53d50 AVAX0.00307419 26.250000001
[ Download CSV Export 
Latest 4 internal transactions
Parent Txn Hash Block From To Value
0x3ba87f2c753386702de4f96d65a085b1c2d98eeb0affdf474e651e6f05383047250619682023-01-17 15:07:4418 days 23 hrs ago 0x7d98d9653b1bea5fbe9858239756a54b1d0f12520xaff68138f72da16da9c154654d75c7448da1238419.989333333333333333 AVAX
0xdebb2c4d24f8a132aec4355fd2802cabf4203ac810cafb5238be782bf309d08a236063692022-12-14 2:39:5753 days 12 hrs ago 0x7d98d9653b1bea5fbe9858239756a54b1d0f12520xaff68138f72da16da9c154654d75c7448da1238420 AVAX
0x7aca2f21f1ef0c862cbdb373be4d654850513837f2d8435e5a320d24e4d5dbde223328882022-11-13 17:26:1483 days 21 hrs ago 0x7d98d9653b1bea5fbe9858239756a54b1d0f12520xaff68138f72da16da9c154654d75c7448da1238425 AVAX
0x0554b88888f5e8b7a53ae0e5b55a4f9fcc5ae208f49f52cea7749cf93c912aca223328442022-11-13 17:24:4783 days 21 hrs ago 0x7d98d9653b1bea5fbe9858239756a54b1d0f12520xaff68138f72da16da9c154654d75c7448da123840.333333333333333333 AVAX
[ Download CSV Export 
Loading

Contract Name:
0

Compiler Version
0

Optimization Enabled:
0

Other Settings:
-NA-
Block Transaction Gas Used Reward
Age Block Fee Address BC Fee Address Voting Power Jailed Incoming
Block Uncle Number Difficulty Gas Used Reward
Loading
Make sure to use the "Vote Down" button for any spammy posts, and the "Vote Up" for interesting conversations.